Regional Weather Roundup
Issued by NWS Charleston, SC

Current Version | Previous Version | Text Only | Print | Product List | Glossary Off
Versions: 1 2 3 4 5 6 7 8 9 10 11 12 13 14 15 16 17 18 19 20 21 22 23 24 25 26 27 28 29 30 31 32 33 34 35 36 37 38 39 40 41 42 43 44 45 46 47 48 49 50

000
ASUS42 KCHS 192310
RWRCHS

REGIONAL WEATHER ROUNDUP
NATIONAL WEATHER SERVICE CHARLESTON SC
700 PM EDT TUE AUG 19 2014

NOTE: "FAIR" INDICATES FEW OR NO CLOUDS BELOW 12,000 FEET WITH NO
SIGNIFICANT WEATHER AND/OR OBSTRUCTIONS TO VISIBILITY.

NOT ALL STATIONS ARE QUALITY CONTROLLED BY THE NATIONAL
WEATHER SERVICE. USE DATA WITH CAUTION...ESPECIALLY
DEWPOINT OBSERVATIONS.

SCZ027-030-031-034>040-042>050-200000-
...SOUTH CAROLINA...

CITY           SKY/WX    TMP DP  RH WIND       PRES   REMARKS
N CHARLESTON   PTSUNNY   86  74  67 W10G18    29.87R HX  94
WATERFRONT PRK   N/A     82 N/A N/A SW8G15      N/A
FORT JOHNSON   NOT AVBL
MOUNT PLEASANT FAIR      84  75  74 SW9G18    29.86S HX  92
JOHNS ISLAND   CLEAR     82  75  78 W5        29.88R
PINOPOLIS        N/A     88  75  66 SW13      29.75F HX  97
MONCKS CORNER  NOT AVBL
SUMMERVILLE    NOT AVBL
BEAUFORT MCAS  PTSUNNY   83  74  74 NW8       29.89R
BEAUFORT ARPT  FAIR      82  75  78 SW9G16    29.89R
HILTON HEAD IS SUNNY     82  73  74 SW12      29.91S
GEORGETOWN     NOT AVBL
WALTERBORO     PTCLDY    84  72  65 W9        29.88S
ORANGEBURG     PTSUNNY   87  71  58 SW13G20   29.86R HX  93
BARNWELL       CLOUDY    84  75  74 SW13      29.89R HX  92
AIKEN          FAIR      86  72  62 SW7       29.91S HX  92
MANNING        FAIR      88  73  62 NW3       29.84S HX  96
KINGSTREE      NOT AVBL
COLUMBIA       PTSUNNY   90  69  50 SW6       29.84R HX  94
SUMTER         MOSUNNY   87  73  63 W7        29.83S HX  94
FLORENCE       MOSUNNY   82  73  74 NW3       29.82F
MYRTLE BEACH   MOSUNNY   81  73  78 W7        29.83S
N MYRTLE BEACH MOSUNNY   79  74  84 CALM      29.82R

$$

GAZ063-065-086>088-099>101-113>116-118-119-134-136>141-150-200000-
...GEORGIA...

CITY           SKY/WX    TMP DP  RH WIND       PRES   REMARKS
SAVANNAH ARPT  CLOUDY    82  73  74 SW9       29.91S
HUNTER AAF     CLOUDY    82  73  75 W7        29.89S
FORT STEWART   CLOUDY    83  73  73 SW7       29.90F
STATESBORO     NOT AVBL
SYLVANIA       DRIZZLE   80  74  83 W5        29.90F
CLAXTON        FAIR      82  79  89 SW3       29.90F HX  93
THOMSON        CLOUDY    86  77  74 SW6       29.94R HX  96
AUGUSTA-BUSH   CLOUDY    84  74  71 SW14      29.87R HX  91
AUGUSTA-DANIEL CLOUDY    88  70  55 SW5       29.89R HX  93
SWAINSBORO     FAIR      77  77 100 W3        29.91F
VIDALIA          N/A     79  72  78 SW14G20   29.91F
ALMA           LGT RAIN  73  70  90 S6        29.93F
WAYCROSS       CLOUDY    82  71  71 W8        29.95R
JESUP          LGT RAIN  82  77  83 W3        29.93S HX  91
BRUNSWICK      CLOUDY    82  68  61 SW8       29.94F
SAINT SIMONS   CLOUDY    82  70  66 SW9       29.94R

$$

SCZ027-028-034-036>038-045-046-048>050-GAZ119-141-200000-
...LAKE AND SUPPLEMENTAL COASTAL OBSERVATIONS...

STATION/POSITION TIME  TEMP    WIND        PRES    WAVE   SWELL
                       AIR SEA DIR/SP/G            HT/PER HT/PER/DIR
                 (UTC) (F)     (DEG/KT/KT) (MB)    (FT/S) (FT/S/D)
UPR LAKE MARION  NOT AVBL
WINYAH BAY       2200   86     240/ 14     1009.0S
LAKE MURRAY      2200   86     160/  4/  5 1009.8S
ACE BASIN NERRS  2200   83     250/  3     1012.0S
FORT PULASKI     2300   83     240/  7/ 10 1012.7F
SAPELO ISLAND    2200   85     250/  8     1014.0R

$$

ANZ835-935-AMZ111-154-330-350-352-354-374-450-454-472-200000-
...C-MAN AND BUOY OBSERVATIONS...

STATION/POSITION TIME  TEMP    WIND        PRES    WAVE   SWELL
                       AIR SEA DIR/SP/G            HT/PER HT/PER/DIR
                 (UTC) (F)     (DEG/KT/KT) (MB)    (FT/S) (FT/S/D)
FOLLY BEACH CMAN 2200   83     240/  9/ 13 1011.6R
BUOY 41004       2300   83 83  240/ 19/ 23 1010.5R   5/ 6   2/ 9
BUOY 41008       2300   85 85  260/ 14/ 16 1013.2R   2/ 3
5E ST. MARYS GA  2300      81                N/A     2/ 3
FRYING PAN BUOY  NOT AVBL
BUOY 41025       2300   80     230/ 10/ 12 1009.2S   4/ 6   3/220/ 6
CAPE LOOKOUT NC  2200   83     240/ 12/ 16 1009.6R
BUOY 41002       2229   82 81  250/ 14/ 16 1013.4R   5/ 7   3/250/ 7
BUOY 41010       2300   85 86  270/  6/  8 1015.6R   3/ 4   2/300/ 4
BUOY 41012       NOT AVBL
ST AUGUSTINE FL  2300   91     270/  5/  8 1014.9R
CAPERS NEARSHORE 2200   83     250/ 16/ 19   N/A
FRIPP NEARSHORE  NOT AVBL


$$


USA.gov is the U.S. government's official web portal to all federal, state and local government web resources and services.